Weather History for New Bedford, MA

Change the Weather History Date:

Tuesday, December 25, 2012

  Actual Average Record
Temperature  
Mean Temperature 32 °F -  
Max Temperature 35 °F 40 °F 60 °F (1990)
Min Temperature 27 °F 23 °F -5 °F (1980)
Degree Days  
Heating Degree Days 34    
Moisture  
Dew Point 30 °F    
Average Humidity 90    
Maximum Humidity 100    
Minimum Humidity 78    
Precipitation  
Precipitation 0.06 in - - ()
Sea Level Pressure  
Sea Level Pressure 30.03 in    
Wind  
Wind Speed 3 mph (North)    
Max Wind Speed 7 mph    
Max Gust Speed -    
Visibility 6 miles    
Events Rain , Snow    
Averages and records for this station are not official NWS values.
T = Trace of Precipitation, MM = Missing Value Source: NWS Daily Summary

Daily Weather History Graph

Daily Weather History Graph

Search for Another Location

Airport:

Trip Planner

Search our weather history database for the weather conditions in past years. The results will help you decide how hot, cold, wet, or windy it might be!

Date:

Astronomy

Dec. 25, 2012 Rise Set
Actual Time 7:09 AM EST 4:19 PM EST
Civil Twilight 6:37 AM EST 4:50 PM EST
Nautical Twilight 6:02 AM EST 5:25 PM EST
Astronomical Twilight 5:28 AM EST 5:59 PM EST
Moon 2:25 PM EST (12/25) 4:38 AM EST (12/25)
Length of Visible Light 10h 12m
Length of Day
9h 09m
Waxing Gibbous, 93% of the Moon is Illuminated
Dec 25
Waxing Gibbous
Dec 28
Full
Jan 4
Last Quarter
Jan 11
New
Jan 18
First Quarter

Hourly Weather History & Observations

Time (EST) Temp. Windchill Dew Point Humidity Pressure Visibility Wind Dir Wind Speed Gust Speed Precip Events Conditions
12:05 AM 32.0 °F - 28.4 °F 87% 30.00 in 2.0 mi Calm Calm - 0.00 in Snow Light Snow
12:12 AM 32.0 °F - 28.4 °F 87% 30.00 in 1.8 mi Calm Calm - 0.00 in Snow Light Snow
12:53 AM 32.0 °F 28.7 °F 28.9 °F 88% 30.00 in 2.5 mi North 3.5 mph - 0.01 in Snow Light Snow
1:04 AM 32.0 °F 28.7 °F 28.4 °F 87% 29.99 in 1.5 mi North 3.5 mph - 0.01 in Snow Light Snow
1:30 AM 32.0 °F - 30.2 °F 93% 30.00 in 2.0 mi Calm Calm - 0.01 in Snow Light Snow
1:53 AM 32.0 °F 28.7 °F 30.0 °F 92% 30.00 in 3.0 mi NNE 3.5 mph - 0.01 in Snow Light Snow
2:53 AM 32.0 °F 26.4 °F 30.0 °F 92% 29.98 in 6.0 mi NNE 5.8 mph - 0.00 in   Overcast
3:46 AM 33.8 °F 29.6 °F 30.2 °F 87% 29.96 in 6.0 mi NNE 4.6 mph - 0.00 in Rain Light Rain
3:53 AM 33.1 °F 30.0 °F 30.9 °F 92% 29.97 in 6.0 mi NNE 3.5 mph - 0.00 in   Overcast
4:46 AM 33.8 °F 30.8 °F 30.2 °F 87% 29.97 in 4.0 mi NE 3.5 mph - 0.01 in Rain Light Rain
4:53 AM 33.1 °F 30.0 °F 30.9 °F 92% 29.97 in 4.0 mi NNE 3.5 mph - 0.01 in Rain Light Rain
5:19 AM 33.8 °F 29.6 °F 32.0 °F 93% 29.95 in 5.0 mi NE 4.6 mph - 0.00 in Rain Light Rain
5:53 AM 34.0 °F 29.8 °F 32.0 °F 92% 29.96 in 7.0 mi NNE 4.6 mph - 0.00 in   Overcast
6:08 AM 33.8 °F 30.8 °F 32.0 °F 93% 29.95 in 6.0 mi NNE 3.5 mph - N/A   Overcast
6:53 AM 34.0 °F 29.8 °F 32.0 °F 92% 29.96 in 6.0 mi North 4.6 mph - 0.00 in   Overcast
7:53 AM 34.0 °F 28.8 °F 33.1 °F 96% 29.97 in 5.0 mi North 5.8 mph - N/A   Overcast
8:53 AM 35.1 °F 30.1 °F 33.1 °F 92% 29.99 in 3.0 mi North 5.8 mph - 0.01 in Rain Light Rain
9:53 AM 35.1 °F 29.3 °F 33.1 °F 92% 30.01 in 4.0 mi North 6.9 mph - 0.01 in Rain Light Rain
10:32 AM 33.8 °F 27.7 °F 33.8 °F 100% 30.00 in 2.5 mi North 6.9 mph - 0.00 in Rain Light Rain
10:53 AM 34.0 °F 28.0 °F 32.0 °F 92% 30.00 in 3.0 mi Variable 6.9 mph - 0.01 in Rain Light Rain
11:17 AM 33.8 °F 28.6 °F 33.8 °F 100% 29.99 in 2.5 mi North 5.8 mph - 0.00 in Rain Light Rain
11:38 AM 33.8 °F 29.6 °F 32.0 °F 93% 29.99 in 3.0 mi Variable 4.6 mph - 0.00 in Rain Light Rain
11:48 AM 33.8 °F 28.6 °F 32.0 °F 93% 29.99 in 2.5 mi North 5.8 mph - 0.00 in Rain Light Rain
11:53 AM 33.1 °F 28.7 °F 32.0 °F 96% 29.99 in 2.5 mi Variable 4.6 mph - 0.00 in   Overcast
12:09 PM 33.8 °F 29.6 °F 32.0 °F 93% 29.99 in 3.0 mi Variable 4.6 mph - 0.00 in Rain Light Rain
12:53 PM 34.0 °F 29.8 °F 32.0 °F 92% 29.99 in 4.0 mi North 4.6 mph - 0.00 in   Overcast
1:53 PM 33.1 °F 27.7 °F 30.9 °F 92% 29.99 in 5.0 mi Variable 5.8 mph - N/A   Overcast
2:53 PM 34.0 °F 29.8 °F 30.9 °F 89% 30.05 in 6.0 mi NNW 4.6 mph - N/A   Overcast
3:53 PM 33.1 °F 26.9 °F 30.0 °F 89% 30.06 in 7.0 mi NNW 6.9 mph - N/A   Overcast
4:32 PM 33.8 °F 28.6 °F 30.2 °F 87% 30.07 in 8.0 mi NNW 5.8 mph - N/A   Overcast
4:53 PM 33.1 °F 30.0 °F 30.0 °F 89% 30.08 in 10.0 mi North 3.5 mph - N/A   Overcast
5:53 PM 33.1 °F - 30.0 °F 89% 30.10 in 10.0 mi Calm Calm - N/A   Overcast
6:51 PM 32.0 °F - 28.4 °F 87% 30.13 in 10.0 mi Calm Calm - N/A   Scattered Clouds
6:53 PM 32.0 °F - 28.0 °F 85% 30.13 in 10.0 mi Calm Calm - N/A   Partly Cloudy
7:53 PM 30.9 °F - 28.0 °F 89% 30.15 in 10.0 mi Calm Calm - N/A   Clear
8:53 PM 30.0 °F - 26.1 °F 85% 30.15 in 10.0 mi Calm Calm - N/A   Clear
9:53 PM 28.9 °F - 25.0 °F 85% 30.18 in 10.0 mi Calm Calm - N/A   Clear
10:53 PM 28.0 °F 24.2 °F 21.9 °F 78% 30.20 in 10.0 mi NNW 3.5 mph - N/A   Clear
11:53 PM 27.0 °F 21.6 °F 21.0 °F 78% 30.21 in 10.0 mi NNW 4.6 mph - N/A   Clear